Location: Hurstbourne Priors
(51.2000°N, 1.3667°W)
Time: 19:43:58
(UTC+00:00)

Transit 4A - Pass Details

Date: 27 April 2021
Orbit: 870 x 974 km, 66.8° (Epoch: 09 May)

Event Time Altitude Azimuth Distance (km) Brightness Sun altitude
Rises 02:01:51 0° 293° (WNW) 3,577 10.9 -20.0°
Reaches altitude 10° 02:05:17 10° 312° (NW) 2,613 10.4 -19.7°
Maximum altitude 02:09:21 18° 354° (N) 2,062 10.3 -19.4°
Drops below altitude 10° 02:13:22 10° 37° (NE) 2,568 11.5 -19.0°
Sets 02:16:43 0° 56° (NE) 3,493 12.2 -18.7°
